Starlink 11388

operational
NORAD ID: 62092 Int'l Des: 2024-220 Owner: SPXS Country: US Constellation: starlink
LEOCIRCULAR

About Starlink 11388

Description loading...

Live Position

Loading 3D Globe...

Upcoming Passes

Altitude History

Altitude vs Time

uPlot chart will show altitude changes over time

Two-Line Element Set

1 62092U 24220E 26036.58879550 .00040507 00000-0 31689-3 0 9999
2 62092 42.9990 236.6456 0001686 292.0029 68.0660 15.70896067 69900
Epoch: Feb 5, 2026 • Age: 13 hours

Current Status

Altitude 368.5 km
Velocity 7.69 km/s
Sub-Earth Point -43.02°S, 50.54°W
Launch Date Nov 25, 2024
Age 1.1 years
Type internet

Technical Details

Classification Payload
Mass 960.00 kg
Dry Mass 910.00 kg
Total Mass 960.00 kg
Length 0.30 m
Diameter 4.10 m
Span 29.00 m
Shape Box + pan
Manufacturer SPXS
Bus Type Starlink V2MD
Phase Status In Orbit
Owner/State SPXS/US

Large Constellations

Loading constellations...